www.pogodaiklimat.ru

Погода и климат >> Архив погоды >> Россия >> Новгородская область >> Демянск


ПОГОДА в Демянске

  • Прогноз погоды в Демянске
  • Монитор погоды в Демянске
  • Климат города

АРХИВ ПОГОДЫ в Демянске

Время (UTC), дата Ветер
(напр.,м/с)
 
Видим.   Явления Облачность Т
(С)
Тd
(С)
f
(%)
Тe
(С)
Тes
(С)
Комфортность P
(гПа)
Po
(гПа)
Тmin
(С)
Tmax
(С)
R
(мм)
R24
(мм)
S
(см)
15 10.07 СВ 1 н/о н/о +18.3 +13.9 76 +20 +20 1018.3 1011.1
18 10.07 СЗ 1 50 км 10/10 420 м
[Cb calv]
+16.8 +15.0 89 +18 +18 1018.8 1011.5 +19.1
21 10.07 штиль 0 н/о н/о +16.1 +15.1 94 +16 +16 1019.1 1011.8
00 11.07 С 1 н/о н/о +15.8 +14.8 94 +16 +16 1019.0 1011.7
03 11.07 штиль 0 н/о н/о +15.6 +14.4 93 +15 +15 1019.1 1011.8 +15.5
06 11.07 СЗ 2 50 км 10/10 600 м
[Cb calv]
+17.4 +14.1 81 +18 +18 1019.4 1012.1 +15.5 0.0
09 11.07 СЗ 1 н/о н/о +19.7 +13.6 68 +23 +23 комфорт 1019.2 1012.0
12 11.07 СЗ 1 н/о н/о +23.0 +14.9 60 +27 +27 душно 1018.0 1010.8
15 11.07 В 1 н/о н/о +21.9 +15.3 66 +25 +25 комфорт 1017.2 1010.1
18 11.07 Ю 1 50 км в посл. час ливневой дождь 10/10 600 м
[Cb calv]
+18.7 +17.5 93 +21 +21 комфорт 1017.9 1010.7 +24.9 2
21 11.07 штиль 0 н/о н/о +16.1 +15.2 94 +16 +16 1017.9 1010.6
00 12.07 штиль 0 н/о н/о +16.1 +15.2 94 +16 +16 1017.4 1010.2
03 12.07 штиль 0 н/о н/о +16.2 +15.4 95 +16 +16 1017.8 1010.5 +15.8
06 12.07 штиль 0 50 км 9/9 1000 м
[Sc]
+20.1 +19.1 94 +23 +24 комфорт 1017.6 1010.4 +15.8
09 12.07 СВ 1 н/о н/о +25.6 +14.8 51 +28 +28 жарко 1016.8 1009.7
12 12.07 В 1 н/о н/о +27.5 +13.3 42 +29 +29 жарко 1015.6 1008.6
15 12.07 СЗ 1 н/о н/о +22.4 +15.8 66 +26 +26 жарко 1015.3 1008.1
18 12.07 штиль 0 50 км 8/3 1000 м
[Sc Ci fib]
+20.0 +17.2 84 +23 +23 комфорт 1015.3 1008.2 +28.0
21 12.07 штиль 0 н/о н/о +15.9 +15.0 94 +16 +16 1015.2 1007.9
00 13.07 В 1 н/о н/о +14.9 +14.1 95 +15 +15 1014.6 1007.3
03 13.07 В 1 н/о н/о +14.9 +14.1 95 +15 +15 1014.4 1007.1 +14.0
06 13.07 В 1 50 км ясно +23.3 +15.8 63 +28 +37 душно 1013.9 1006.8 +14.0
09 13.07 С 1 н/о н/о +25.1 +14.6 52 +28 +28 жарко 1013.1 1006.1
12 13.07 СВ 1 н/о н/о +26.7 +14.5 47 +29 +29 жарко 1012.0 1005.0
15 13.07 СВ 1 н/о н/о +26.3 +14.3 48 +29 +29 жарко 1011.2 1004.2
18 13.07 штиль 0 50 км 4/0
[Ac trans]
+20.2 +16.1 77 +23 +23 комфорт 1011.1 1004.0 +28.1
21 13.07 В 1 н/о н/о +15.6 +14.7 94 +16 +16 1011.2 1004.0
00 14.07 В 1 н/о н/о +14.2 +13.4 95 +14 +14 1010.8 1003.5
03 14.07 ЮВ 1 н/о н/о +14.5 +13.7 95 +15 +15 1011.0 1003.7 +13.6
06 14.07 ЮВ 1 50 км 8/8 1000 м
[Sc]
+21.0 +16.4 75 +26 +27 душно 1010.4 1003.3 +13.6
09 14.07 В 1 н/о н/о +22.8 +16.3 67 +27 +27 душно 1009.7 1002.6
12 14.07 С 2 н/о н/о +25.0 +16.4 59 +28 +28 жарко 1008.4 1001.4
15 14.07 ЮВ 2 н/о н/о +24.5 +15.0 55 +27 +27 жарко 1007.8 1000.8
18 14.07 штиль 0 50 км 9/8 1000 м
[Sc Ci fib]
+20.0 +15.2 74 +22 +22 комфорт 1008.4 1001.3 +26.4 3
21 14.07 штиль 0 н/о н/о +16.1 +15.1 94 +16 +16 1008.8 1001.6
00 15.07 штиль 0 н/о н/о +15.7 +14.8 94 +15 +15 1009.2 1001.9
03 15.07 штиль 0 н/о н/о +16.3 +15.5 95 +16 +16 1009.7 1002.5 +15.2
06 15.07 В 1 50 км 9/0
[Cc]
+23.7 +16.7 65 +27 +34 жарко 1010.1 1003.0 +15.2
09 15.07 СВ 1 н/о н/о +27.7 +16.3 50 +31 +31 душно 1010.0 1003.1
12 15.07 ЮЗ 1 н/о н/о +22.9 +18.4 76 +29 +29 очень
душно
1010.3 1003.2
15 15.07 СЗ 1 н/о н/о +25.2 +18.6 67 +30 +30 душно 1010.3 1003.3
18 15.07 штиль 0 50 км 8/0
[Cs]
+22.8 +18.3 76 +28 +28 душно 1011.0 1003.9 +28.3 0.5
21 15.07 штиль 0 н/о н/о +17.7 +16.7 94 +18 +18 1011.4 1004.2
00 16.07 штиль 0 н/о н/о +15.1 +14.3 95 +15 +15 1012.2 1004.9
03 16.07 штиль 0 н/о н/о +15.2 +14.4 95 +15 +15 1012.5 1005.2 +14.3
06 16.07 В 1 4000 м 3/0
[Ci fib]
+25.9 +17.1 58 +30 +38 душно 1012.4 1005.4 +14.3
09 16.07 В 2 н/о н/о +28.3 +15.6 46 +31 +31 душно 1012.0 1005.0
12 16.07 СВ 1 н/о н/о +28.2 +16.7 50 +32 +32 душно 1011.3 1004.4
15 16.07 штиль 0 н/о н/о +29.1 +14.3 40 +31 +31 жарко 1010.6 1003.7
18 16.07 штиль 0 50 км 9/0
[Ac trans Ci fib]
+25.4 +15.2 53 +28 +28 жарко 1011.2 1004.2 +29.9
21 16.07 штиль 0 н/о н/о +17.3 +16.1 93 +17 +17 1011.8 1004.6
00 17.07 штиль 0 н/о н/о +14.8 +13.9 94 +14 +14 1012.0 1004.7
03 17.07 штиль 0 н/о н/о +15.3 +14.4 94 +15 +15 1012.3 1005.1 +14.3
06 17.07 В 1 50 км 3/0
[Ci fib]
+26.4 +17.0 56 +30 +38 душно 1011.6 1004.6 +14.3
09 17.07 В 3 н/о н/о +28.0 +15.6 47 +31 +31 душно 1011.2 1004.2
12 17.07 В 2 н/о н/о +29.7 +13.1 36 +31 +31 жарко 1010.5 1003.6

 

Местоположение метеостанции Демянск (Новгородская область, Россия): широта 57.65 долгота 32.47 высота над уровнем моря 61 м.

В архиве по умолчанию представлена погода в Демянске за последнюю неделю. Архивные данные за месяц целиком и за предыдущие месяцы, начиная с января 2011 года, Вы можете получить, выбрав интересующий диапазон дат из раскрывающегося списка и нажав кнопку "Ввод!".


*Определитесь, кто Вы:
робот инопланетянин человек

Внимание! Время в таблицах - всемирное. Для получения местного времени необходимо прибавить поправку, которая в Демянске равна 3 ч.

Смотрите также архив погоды в соседних городах и на ближайших метеорологических станциях:

Погода в Валдае (Новгородская область, Россия) (60 км)
Погода в Крестцах (Новгородская область, Россия) (69 км)
Погода в Осташкове (Тверская область, Россия) (71 км)
Погода в Старой Руссе (Новгородская область, Россия) (80 км)
Погода в Холме (Новгородская область, Россия) (95 км)
Погода в Бологом (Тверская область, Россия) (96 км)
Погода в Боровичах (Новгородская область, Россия) (120 км)
Погода в Великом Новгороде (Новгородская область, Россия) (120 км)
Погода в Вышнем Волочке (Тверская область, Россия) (125 км)
Погода в Лесном Заповеднике (Тверская область, Россия) (136 км)

Пояснения к столбцам:

Ветер - указаны скорость ветра в м/с - средняя за 10 мин, порывы в срок и между сроками (в фигурных скобках) и направление, откуда дует ветер: С - северный, СВ - северо-восточный, В - восточный, ЮВ - юго-восточный, Ю - южный, ЮЗ - юго-западный, З - западный, СЗ - северо-западный.
Видимость - горизонтальная дальность видимости в метрах или километрах. При видимости от 1 до 10 км при отсутствии осадков обычно наблюдается дымка, при ухудшении видимости до 1 км и менее - туман. В сухую погоду видимость может ухудшаться дымом, пылью или мглою.
Явления - указаны атмосферные явления, наблюдавшиеся в срок или в последний час перед сроком; фигурными скобками обозначены явления, наблюдавшиеся между сроками (за 1-3 часа до срока); квадратными скобками обозначены град или гололедные отложения с указанием их диаметра в мм.
Облачность - указаны через наклонную черту общая и нижняя облачность в баллах и высота нижней границы облаков в метрах; квадратными скобками обозначены формы облаков: Ci - перистые, Cs - перисто-слоистые, Cc - перисто-кучевые, Ac - высококучевые, As - высокослоистые, Sc - слоисто-кучевые, Ns - слоисто-дождевые, Cu - кучевые, Cb - кучево-дождевые. Подробнее классификацию облаков см. в Атласе облаков (PDF).
T - Температура воздуха - температура, измеренная на высоте 2 м над землей.
Td - Температура точки росы - температура, при понижении до которой содержащийся в воздухе водяной пар достигнет насыщения.
f - Относительная влажность воздуха - влажноcть воздуха, измеренная на высоте 2 м над землей.
Te - Эффективная температура - температура, которую ощущает одетый по сезону человек в тени. Характеристика душности погоды. При расчете учитывается влияние влажности воздуха и скорости ветра на теплоощущения человека.
Tes - Эффективная температура на солнце - температура, которую ощущает человек, с поправкой на солнечный нагрев. Характеристика знойности погоды. Зависит от высоты солнца над горизонтом, облачности и скорости ветра. Ночью, в пасмурную погоду, а также при ветре 12 м/с и более поправка равна нулю.
P - Атмосферное давление - приведенное к уровню моря атмосферное давление.
Po - Атмосферное давление - измеренное на уровне метеостанции атмосферное давление.
Tmin - Минимальная температура - минимум температуры воздуха на высоте 2 м над землей.
Tmax - Максимальная температура - максимум температуры воздуха на высоте 2 м над землей.
R - Количество осадков - Количество выпавших осадков за период времени, мм. При наведении курсора мыши на число - период времени, за который выпало указанное количество осадков.
R24 - Количество осадков - Количество выпавших осадков за 24 часа, мм.
S - Снежный покров - Высота снежного покрова, см. При наведении курсора мыши на число - состояние снежного покрова и степень покрытия местности в баллах.